CW8614 Weather Reports


time (UTC)temp
F
wind
direction
speed
knots
gust
knots
rain 1hr
in
rain 24hr
in
rain mn
in
humidity
%
barometer
mb
20260508210016 56 301 1.7 7.0 0.00 0.06 0.06 46 1010.8
20260508205016 55 278 1.7 7.0 0.00 0.06 0.06 47 1010.9
20260508204016 56 306 3.5 7.8 0.00 0.06 0.06 48 1010.8
20260508203016 56 292 3.5 7.8 0.00 0.06 0.06 47 1010.9
20260508202016 56 265 2.6 7.8 0.00 0.06 0.06 49 1011.0
20260508201016 55 293 4.3 9.6 0.00 0.06 0.06 49 1011.2
20260508200016 55 285 2.6 9.6 0.00 0.06 0.06 53 1011.3
20260508195036 55 279 2.6 7.8 0.00 0.06 0.06 54 1011.5
20260508194036 54 282 2.6 6.1 0.00 0.06 0.06 55 1011.3
20260508193016 53 312 2.6 7.8 0.00 0.06 0.06 58 1011.3
20260508192016 52 307 2.6 7.8 0.00 0.06 0.06 60 1011.5
20260508191036 54 325 3.5 8.7 0.00 0.06 0.06 58 1011.6
20260508190016 53 291 1.7 7.8 0.00 0.06 0.06 59 1011.5
20260508185036 53 293 3.5 9.6 0.00 0.06 0.06 60 1011.7
20260508184016 52 303 4.3 8.7 0.00 0.06 0.06 61 1011.9
20260508183036 51 281 3.5 8.7 0.00 0.06 0.06 63 1011.9
20260508182016 51 287 3.5 7.0 0.00 0.06 0.06 62 1012.0
20260508181016 51 259 2.6 7.0 0.00 0.06 0.06 64 1011.9
20260508180016 51 330 3.5 7.0 0.00 0.06 0.06 65 1011.9
20260508175016 51 281 1.7 6.1 0.00 0.06 0.06 66 1011.9
20260508174016 50 246 1.7 6.1 0.00 0.06 0.06 68 1011.9
20260508173016 49 254 0.9 6.1 0.00 0.06 0.06 71 1012.1
20260508172016 49 250 1.7 7.0 0.00 0.06 0.06 69 1012.3
20260508171016 49 274 2.6 5.2 0.00 0.06 0.06 70 1012.2
20260508170016 49 280 4.3 7.0 0.00 0.06 0.06 70 1012.2
20260508165016 49 310 0.9 6.1 0.00 0.06 0.06 73 1012.1
20260508164016 48 287 1.7 5.2 0.00 0.06 0.06 76 1012.1
20260508163056 48 266 1.7 4.3 0.00 0.06 0.06 75 1012.2
20260508162016 48 306 1.7 6.1 0.00 0.06 0.06 75 1012.3
20260508161016 47 267 2.6 5.2 0.00 0.06 0.06 76 1012.2
20260508160016 47 268 2.6 6.1 0.00 0.06 0.06 77 1012.3
20260508155016 46 295 1.7 6.1 0.01 0.06 0.06 81 1012.4
20260508154016 46 253 1.7 5.2 0.01 0.06 0.06 87 1012.5
20260508153016 45 263 1.7 7.8 0.01 0.06 0.06 87 1012.5
20260508152036 44 298 1.7 7.8 0.01 0.06 0.06 91 1012.4
20260508151016 43 278 1.7 5.2 0.01 0.06 0.06 90 1012.3
20260508150016 43 252 0.9 6.1 0.02 0.06 0.06 90 1012.4
20260508145016 43 252 1.7 6.1 0.01 0.05 0.05 88 1012.5
20260508144016 43 278 2.6 7.0 0.01 0.05 0.05 87 1012.5
20260508143016 44 272 3.5 8.7 0.02 0.05 0.05 85 1012.4
20260508142016 45 301 2.6 10.4 0.02 0.05 0.05 87 1012.2
20260508141016 45 306 0.9 5.2 0.02 0.05 0.05 90 1012.0
20260508140016 45 315 0.9 4.3 0.01 0.04 0.04 89 1012.0
20260508135016 45 304 1.7 3.5 0.01 0.04 0.04 87 1012.0
20260508134016 45 317 1.7 4.3 0.01 0.04 0.04 86 1012.0
20260508133016 45 311 0.9 3.5 0.00 0.03 0.03 85 1012.0
20260508132016 45 307 1.7 4.3 0.00 0.03 0.03 83 1012.0
20260508131016 46 318 1.7 4.3 0.00 0.03 0.03 83 1011.9
20260508130016 46 296 1.7 5.2 0.00 0.03 0.03 83 1011.9
20260508125016 46 247 0.9 2.6 0.00 0.03 0.03 85 1011.5
20260508124016 46 0.0 1.7 0.00 0.03 0.03 87 1011.3
20260508123016 46 101 0.0 1.7 0.00 0.03 0.03 86 1011.3
20260508122016 46 259 0.0 0.9 0.00 0.03 0.03 87 1011.5
20260508121016 45 246 0.0 0.9 0.00 0.03 0.03 91 1011.5
20260508120036 44 261 0.0 0.9 0.00 0.03 0.03 92 1011.5
20260508115016 43 226 0.0 2.6 0.00 0.03 0.03 94 1011.5
20260508114016 42 0.0 0.9 0.00 0.03 0.03 96 1011.6
20260508113016 41 0.0 0.9 0.00 0.03 0.03 96 1011.7
20260508112016 40 145 0.0 1.7 0.00 0.03 0.03 97 1011.7
20260508111016 40 252 0.0 1.7 0.00 0.03 0.03 97 1011.9
20260508110016 39 236 0.0 0.9 0.00 0.03 0.03 97 1011.8
20260508105016 38 0.0 0.9 0.00 0.03 0.03 97 1011.8
20260508104016 38 0.0 0.0 0.00 0.03 0.03 97 1011.6
20260508103016 37 0.0 0.9 0.00 0.03 0.03 97 1011.6
20260508102016 37 0.0 0.0 0.00 0.03 0.03 97 1011.7
20260508101016 36 0.0 0.0 0.00 0.03 0.03 96 1011.7
20260508100017 36 0.0 0.0 0.00 0.03 0.03 96 1011.5
20260508095016 36 0.0 0.0 0.00 0.03 0.03 96 1011.4
20260508094016 36 0.0 0.0 0.00 0.03 0.03 96 1011.3
20260508093036 36 0.0 0.0 0.00 0.03 0.03 95 1011.3
20260508092016 36 0.0 0.0 0.00 0.03 0.03 94 1011.4
20260508091016 37 0.0 0.0 0.00 0.03 0.03 94 1011.3
20260508090036 38 0.0 0.0 0.00 0.03 0.03 94 1011.4
20260508085036 39 0.0 0.0 0.00 0.03 0.03 95 1011.3
20260508084016 39 0.0 0.0 0.00 0.03 0.03 94 1011.2
20260508083036 40 0.0 0.0 0.00 0.03 0.03 94 1011.3
20260508082016 40 235 0.0 1.7 0.00 0.03 0.03 94 1011.3
20260508081016 40 242 0.0 3.5 0.00 0.03 0.03 94 1011.4
20260508080016 40 252 0.0 2.6 0.00 0.03 0.03 94 1011.4
20260508075036 41 246 0.0 2.6 0.00 0.03 0.03 94 1011.5
20260508074016 41 254 0.0 0.9 0.02 0.03 0.03 93 1011.6
20260508073036 41 256 0.0 0.9 0.03 0.03 0.03 93 1011.4
20260508072016 41 222 0.0 0.9 0.03 0.03 0.03 92 1011.5
20260508071016 41 0.0 0.9 0.03 0.03 0.03 91 1011.6
20260508070016 41 272 0.9 3.5 0.03 0.03 0.03 90 1011.5
20260508065016 41 327 1.7 3.5 0.03 0.03 0.03 88 1011.6
20260508064016 42 319 2.6 9.6 0.01 0.01 0.01 83 1011.6
20260508063017 44 315 5.2 10.4 0.00 0.00 0.00 77 1011.5
20260508062016 44 330 3.5 8.7 0.00 0.00 0.00 74 1011.2
20260508061016 44 319 3.5 7.0 0.00 0.00 0.00 73 1011.1
20260508060016 44 323 2.6 6.1 0.00 0.00 0.00 73 1010.9
20260508055016 43 311 0.9 1.7 0.00 0.00 0.00 79 1010.9
20260508054036 42 0.0 0.0 0.00 0.00 0.00 80 1010.8
20260508053017 42 0.0 0.0 0.00 0.00 0.00 80 1010.8
20260508052036 42 0.0 0.0 0.00 0.00 0.00 78 1010.9
20260508051036 42 0.0 0.0 0.00 0.00 0.00 77 1010.9
20260508050016 42 0.0 0.0 0.00 0.00 0.00 76 1010.9
20260508045016 42 240 0.0 0.9 0.00 0.00 0.00 76 1010.9
20260508044017 41 0.0 0.0 0.00 0.00 0.00 79 1010.8
20260508043017 41 0.0 0.0 0.00 0.00 0.00 79 1010.7
20260508042016 41 0.0 0.0 0.00 0.00 0.00 80 1010.7
20260508041036 40 0.0 0.9 0.00 0.00 0.00 81 1010.6
20260508040036 39 0.0 0.0 0.00 0.00 0.00 82 1010.6
20260508035036 39 0.0 0.0 0.00 0.00 0.00 81 1010.7
20260508034016 38 0.0 0.0 0.00 0.00 0.00 79 1010.6
20260508033056 39 0.0 0.0 0.00 0.00 0.00 77 1010.5
20260508032016 39 0.0 0.0 0.00 0.00 0.00 75 1010.4
20260508031016 40 0.0 0.0 0.00 0.00 0.00 73 1010.3
20260508030016 40 0.0 0.0 0.00 0.00 0.00 73 1010.2
20260508025016 41 0.0 0.0 0.00 0.00 0.00 69 1010.0
20260508024016 42 0.0 0.0 0.00 0.00 0.00 67 1010.0
20260508023016 43 0.0 0.0 0.00 0.00 0.00 67 1010.0
20260508022016 44 0.0 0.0 0.00 0.00 0.00 60 1010.2
20260508021016 45 0.0 0.0 0.00 0.00 0.00 58 1010.3
20260508020016 45 0.0 0.0 0.00 0.00 0.00 58 1010.4
20260508015016 46 0.0 0.0 0.00 0.00 0.00 57 1010.4
20260508014016 47 0.0 1.7 0.00 0.00 0.00 51 1010.3
20260508013016 48 321 0.0 1.7 0.00 0.00 0.00 50 1010.4
20260508012016 49 263 0.0 1.7 0.00 0.00 0.00 48 1010.4
20260508011016 49 304 0.0 1.7 0.00 0.00 0.00 48 1010.3
20260508010016 49 289 0.0 1.7 0.00 0.00 0.00 48 1010.2
20260508005016 49 309 0.0 2.6 0.00 0.00 0.00 47 1010.2
20260508004016 50 296 1.7 4.3 0.00 0.00 0.00 46 1010.1
20260508003016 50 315 0.9 3.5 0.00 0.00 0.00 45 1010.1
20260508002036 50 321 1.7 7.0 0.00 0.00 0.00 45 1009.9
20260508001016 50 330 0.9 3.5 0.00 0.00 0.00 45 1009.9
20260508000036 50 322 0.9 3.5 0.00 0.00 0.00 44 1009.8
20260507235036 50 319 0.9 4.3 0.00 0.00 0.00 44 1009.8
20260507234016 50 311 1.7 4.3 0.00 0.00 0.00 42 1009.6
20260507233016 51 323 1.7 5.2 0.00 0.00 0.00 42 1009.5
20260507232016 51 329 1.7 5.2 0.00 0.00 0.00 41 1009.6
20260507231016 52 335 2.6 7.0 0.00 0.00 0.00 39 1009.6
20260507230036 54 349 2.6 5.2 0.00 0.00 0.00 38 1009.6
20260507225016 54 348 1.7 6.1 0.00 0.00 0.00 38 1009.5
20260507224016 54 333 3.5 7.8 0.00 0.00 0.00 37 1009.5
20260507223016 54 315 3.5 8.7 0.00 0.00 0.00 37 1009.5
20260507222017 55 330 3.5 9.6 0.00 0.00 0.00 36 1009.5
20260507221016 54 351 2.6 9.6 0.00 0.00 0.00 36 1009.5
20260507220016 55 341 3.5 9.6 0.00 0.00 0.00 38 1009.5
20260507215016 54 323 2.6 8.7 0.00 0.00 0.00 37 1009.6
20260507214016 54 342 4.3 8.7 0.00 0.00 0.00 37 1009.6
20260507213016 55 347 4.3 10.4 0.00 0.00 0.00 37 1009.6
20260507212016 55 318 3.5 8.7 0.00 0.00 0.00 36 1009.7
20260507211016 55 345 2.6 8.7 0.00 0.00 0.00 39 1009.6